Location: Caltech
(34.1382°N, 118.1253°W)
Time: 21:25:25
(UTC-07:00)

Cosmos 2360 Rocket - Visible Passes

Search period start: 28 March 2015 00:00
Search period end: 07 April 2015 00:00
Orbit: 834 x 845 km, 71.0° (Epoch: 27 March)

Date Brightness Start Highest point End Pass type
(mag) Time Alt. Az. Time Alt. Az. Time Alt. Az.
28 Mar 2.3 19:53:36 10° NNW 19:59:17 86° WSW 20:04:57 10° SSE visible
29 Mar 2.2 19:37:58 10° NNW 19:43:40 88° ENE 19:49:21 10° SSE visible
31 Mar 5.2 20:54:16 10° W 20:55:52 11° W 20:57:03 10° WSW visible
01 Apr 5.2 20:38:04 10° WNW 20:40:17 12° W 20:42:07 10° WSW visible
02 Apr 5.2 20:22:01 10° WNW 20:24:42 13° W 20:26:59 10° SW visible
03 Apr 5.1 20:06:05 10° WNW 20:09:06 14° W 20:11:48 10° SW visible
04 Apr 5.1 19:50:11 10° WNW 19:53:31 15° W 19:56:32 10° SW visible
